When you browse on this site, cookies collect data to enhance your experience and personalize the content and advertising you see.
Visit our Privacy Policy to learn more. By continuing to use the site, you agree to this use of cookies and data.
  • En España
  • Lista de países
  • Para 7 días
  • Temperatura del agua
  • Mapa Satelital
  • El tiempo en el mapa
  • Informadores
  • user-avatar
    Iniciar sesión

    Tiempo cada hora Kommuna

    Hoy, 18 Enero, Viernes

    Tiempo Temperatura Precipitaciones Viento Presión Humedad
    00:00 -2°C° 0.1 mm 6 mps 726 mmHg 85%
    01:00 -2°C° 0.1 mm 6 mps 727 mmHg 83%
    02:00 -1°C° 0 mm 4 mps 727 mmHg 83%
    03:00 -2°C° 0 mm 4 mps 728 mmHg 84%
    04:00 -4°C° 0 mm 4 mps 729 mmHg 85%
    05:00 -5°C° 0 mm 4 mps 729 mmHg 85%
    06:00 -5°C° 0 mm 4 mps 730 mmHg 86%
    07:00 -7°C° 0 mm 4 mps 731 mmHg 86%
    08:00 -6°C° 0 mm 3 mps 731 mmHg 88%
    09:00 -7°C° 0 mm 4 mps 732 mmHg 86%
    10:00 -8°C° 0 mm 4 mps 733 mmHg 84%
    11:00 -8°C° 0 mm 4 mps 734 mmHg 81%
    12:00 -8°C° 0 mm 4 mps 734 mmHg 83%
    13:00 -8°C° 0 mm 3 mps 735 mmHg 85%
    14:00 -6°C° 0 mm 1 mps 735 mmHg 89%
    15:00 -7°C° 0 mm 1 mps 735 mmHg 90%
    16:00 -7°C° 0 mm 1 mps 735 mmHg 92%
    17:00 -8°C° 0 mm 1 mps 735 mmHg 93%
    18:00 -8°C° 0 mm 1 mps 735 mmHg 93%
    19:00 -8°C° 0 mm 1 mps 735 mmHg 93%
    20:00 -8°C° 0 mm 1 mps 735 mmHg 93%
    21:00 -9°C° 0 mm 1 mps 736 mmHg 94%
    22:00 -10°C° 0 mm 2 mps 736 mmHg 94%
    23:00 -12°C° 0 mm 2 mps 736 mmHg 94%

    Mañana, 19 Enero, Sábado

    Tiempo Temperatura Precipitaciones Viento Presión Humedad
    00:00 -13°C° 0 mm 2 mps 737 mmHg 95%
    01:00 -13°C° 0 mm 2 mps 737 mmHg 96%
    02:00 -14°C° 0 mm 2 mps 738 mmHg 97%
    03:00 -13°C° 0.1 mm 2 mps 738 mmHg 96%
    04:00 -12°C° 0.1 mm 2 mps 738 mmHg 95%
    05:00 -12°C° 0.1 mm 3 mps 738 mmHg 93%
    06:00 -12°C° 0.1 mm 3 mps 738 mmHg 93%
    07:00 -9°C° 0.1 mm 2 mps 738 mmHg 93%
    08:00 -9°C° 0.1 mm 2 mps 739 mmHg 93%
    09:00 -10°C° 0.1 mm 3 mps 739 mmHg 90%
    10:00 -9°C° 0.1 mm 3 mps 740 mmHg 88%
    11:00 -9°C° 0.1 mm 3 mps 740 mmHg 85%
    12:00 -9°C° 0 mm 3 mps 740 mmHg 86%
    13:00 -10°C° 0 mm 3 mps 741 mmHg 87%
    14:00 -12°C° 0 mm 3 mps 741 mmHg 88%
    15:00 -12°C° 0 mm 3 mps 741 mmHg 89%
    16:00 -13°C° 0 mm 3 mps 742 mmHg 90%
    17:00 -12°C° 0 mm 2 mps 742 mmHg 92%
    18:00 -12°C° 0 mm 2 mps 742 mmHg 93%
    19:00 -12°C° 0 mm 2 mps 742 mmHg 93%
    20:00 -13°C° 0 mm 3 mps 742 mmHg 94%
    21:00 -13°C° 0 mm 3 mps 743 mmHg 93%
    22:00 -12°C° 0 mm 3 mps 743 mmHg 93%
    23:00 -10°C° 0 mm 3 mps 743 mmHg 93%

    Pasado mañana, 20 Enero, Domingo

    Tiempo Temperatura Precipitaciones Viento Presión Humedad
    00:00 -9°C° 0 mm 3 mps 743 mmHg 92%
    01:00 -8°C° 0 mm 3 mps 742 mmHg 92%
    02:00 -7°C° 0 mm 3 mps 742 mmHg 91%
    03:00 -8°C° 0.1 mm 4 mps 741 mmHg 90%
    04:00 -8°C° 0.1 mm 4 mps 741 mmHg 89%
    05:00 -8°C° 0.1 mm 5 mps 740 mmHg 88%
    06:00 -8°C° 0.2 mm 5 mps 739 mmHg 88%
    07:00 -8°C° 0.2 mm 5 mps 739 mmHg 88%
    08:00 -7°C° 0.2 mm 5 mps 738 mmHg 88%
    09:00 -7°C° 0.3 mm 5 mps 738 mmHg 86%
    10:00 -6°C° 0.3 mm 5 mps 738 mmHg 85%
    11:00 -6°C° 0.3 mm 5 mps 738 mmHg 83%
    12:00 -6°C° 0.1 mm 5 mps 738 mmHg 81%
    13:00 -7°C° 0.1 mm 5 mps 738 mmHg 80%
    14:00 -9°C° 0.1 mm 6 mps 738 mmHg 79%
    15:00 -8°C° 0 mm 5 mps 738 mmHg 80%
    16:00 -10°C° 0 mm 5 mps 739 mmHg 82%
    17:00 -10°C° 0 mm 4 mps 739 mmHg 84%
    18:00 -11°C° 0 mm 4 mps 739 mmHg 85%
    19:00 -12°C° 0 mm 4 mps 740 mmHg 85%
    20:00 -14°C° 0 mm 4 mps 740 mmHg 86%
    21:00 -15°C° 0 mm 4 mps 741 mmHg 88%
    22:00 -14°C° 0 mm 3 mps 741 mmHg 89%
    23:00 -15°C° 0 mm 3 mps 741 mmHg 91%

    21 Enero, Lunes

    Tiempo Temperatura Precipitaciones Viento Presión Humedad
    00:00 -16°C° 0 mm 3 mps 742 mmHg 91%
    01:00 -16°C° 0 mm 3 mps 742 mmHg 92%
    02:00 -17°C° 0 mm 3 mps 742 mmHg 93%
    03:00 -17°C° 0 mm 3 mps 742 mmHg 93%
    04:00 -16°C° 0 mm 2 mps 742 mmHg 93%
    05:00 -16°C° 0 mm 2 mps 743 mmHg 94%
    06:00 -17°C° 0 mm 2 mps 743 mmHg 94%
    07:00 -17°C° 0 mm 2 mps 743 mmHg 95%
    08:00 -18°C° 0 mm 2 mps 743 mmHg 96%
    09:00 -17°C° 0 mm 2 mps 743 mmHg 94%
    10:00 -16°C° 0 mm 2 mps 744 mmHg 93%
    11:00 -17°C° 0 mm 3 mps 744 mmHg 91%
    12:00 -17°C° 0 mm 3 mps 744 mmHg 91%
    13:00 -16°C° 0 mm 3 mps 745 mmHg 91%
    14:00 -16°C° 0 mm 3 mps 745 mmHg 90%
    15:00 -17°C° 0 mm 3 mps 745 mmHg 92%
    16:00 -18°C° 0 mm 3 mps 745 mmHg 93%
    17:00 -17°C° 0 mm 2 mps 746 mmHg 94%
    18:00 -18°C° 0 mm 2 mps 746 mmHg 95%
    19:00 -18°C° 0 mm 2 mps 746 mmHg 95%
    20:00 -18°C° 0 mm 2 mps 746 mmHg 95%
    21:00 -19°C° 0 mm 2 mps 746 mmHg 96%
    22:00 -19°C° 0 mm 2 mps 747 mmHg 96%
    23:00 -20°C° 0 mm 2 mps 747 mmHg 97%

    22 Enero, Martes

    Tiempo Temperatura Precipitaciones Viento Presión Humedad
    00:00 -20°C° 0 mm 2 mps 747 mmHg 97%
    01:00 -19°C° 0 mm 1 mps 747 mmHg 97%
    02:00 -19°C° 0 mm 1 mps 747 mmHg 98%
    03:00 -19°C° 0 mm 1 mps 748 mmHg 98%
    04:00 -20°C° 0 mm 1 mps 748 mmHg 98%
    05:00 -20°C° 0 mm 1 mps 748 mmHg 99%
    06:00 -20°C° 0 mm 1 mps 748 mmHg 99%
    07:00 -21°C° 0 mm 1 mps 748 mmHg 99%
    08:00 -21°C° 0 mm 1 mps 748 mmHg 99%
    09:00 -20°C° 0 mm 0 mps 748 mmHg 97%
    10:00 -19°C° 0 mm 0 mps 749 mmHg 96%
    11:00 -17°C° 0 mm 0 mps 749 mmHg 94%
    12:00 -17°C° 0 mm 0 mps 749 mmHg 95%
    13:00 -16°C° 0 mm 0 mps 748 mmHg 95%
    14:00 -16°C° 0 mm 1 mps 748 mmHg 95%
    15:00 -17°C° 0 mm 1 mps 748 mmHg 96%
    16:00 -18°C° 0 mm 1 mps 748 mmHg 98%
    17:00 -19°C° 0 mm 1 mps 748 mmHg 99%
    18:00 -19°C° 0 mm 1 mps 748 mmHg 99%
    19:00 -19°C° 0 mm 1 mps 748 mmHg 99%
    20:00 -19°C° 0 mm 1 mps 748 mmHg 99%
    21:00 -19°C° 0 mm 1 mps 748 mmHg 99%
    22:00 -19°C° 0 mm 1 mps 748 mmHg 99%
    23:00 -19°C° 0 mm 1 mps 748 mmHg 99%

    23 Enero, Miércoles

    Tiempo Temperatura Precipitaciones Viento Presión Humedad
    00:00 -19°C° 0 mm 1 mps 748 mmHg 99%
    01:00 -18°C° 0 mm 1 mps 748 mmHg 99%
    02:00 -18°C° 0 mm 1 mps 748 mmHg 98%
    03:00 -18°C° 0 mm 1 mps 748 mmHg 98%
    04:00 -18°C° 0 mm 1 mps 748 mmHg 98%
    05:00 -17°C° 0 mm 1 mps 748 mmHg 98%
    06:00 -17°C° 0 mm 1 mps 748 mmHg 98%
    07:00 -17°C° 0 mm 1 mps 748 mmHg 98%
    08:00 -17°C° 0 mm 1 mps 748 mmHg 98%
    09:00 -18°C° 0 mm 2 mps 748 mmHg 97%
    10:00 -17°C° 0 mm 2 mps 748 mmHg 96%
    11:00 -16°C° 0 mm 2 mps 748 mmHg 95%
    12:00 -15°C° 0 mm 2 mps 748 mmHg 95%
    13:00 -14°C° 0 mm 2 mps 748 mmHg 95%
    14:00 -11°C° 0 mm 1 mps 748 mmHg 95%
    15:00 -11°C° 0.1 mm 1 mps 748 mmHg 95%
    16:00 -12°C° 0.1 mm 2 mps 748 mmHg 96%
    17:00 -12°C° 0.1 mm 2 mps 748 mmHg 96%
    18:00 -10°C° 0.1 mm 1 mps 748 mmHg 97%
    19:00 -9°C° 0.1 mm 1 mps 748 mmHg 97%
    20:00 -9°C° 0.1 mm 1 mps 748 mmHg 97%
    21:00 -8°C° 0.1 mm 1 mps 748 mmHg 97%
    22:00 -9°C° 0.1 mm 2 mps 749 mmHg 97%
    23:00 -8°C° 0.1 mm 2 mps 749 mmHg 96%
    Mostrar más